カタログに戻る

STARLINK-35546

運用中通信VLEO
NORAD 66240·PAYLOAD·🇺🇸 United States

打ち上げ Oct 29, 2025 から Cape Canaveral Space Force Station

Loading…

次のパス (今後24時間)

TLE

最新Source: CelesTrak SupGP

元期: Sep 14, 2026, 22:30 UTC

1 66240C 25245G   26257.93798611 -.00010069  00000+0 -29753-3 0  2575
2 66240  53.1582 123.4200 0001392  78.8637 207.4179 15.34391780    12

AllMySatでSTARLINK-35546をリアルタイム追跡

Download on the App Store